Change the Weather History Date:

Thursday, March 13, 2014

  Actual Average Record
Temperature  
Mean Temperature 16 °F -  
Max Temperature 34 °F 44 °F 73 °F (2007)
Min Temperature 3 °F 27 °F 3 °F (1960)
Degree Days  
Heating Degree Days 48    
Moisture  
Dew Point 10 °F    
Average Humidity 71    
Maximum Humidity 88    
Minimum Humidity 59    
Precipitation  
Precipitation 0.00 in - - ()
Sea Level Pressure  
Sea Level Pressure 30.11 in    
Wind  
Wind Speed 13 mph (SSW)    
Max Wind Speed 16 mph    
Max Gust Speed 22 mph    
Visibility 10 miles    
Events      
Averages and records for this station are not official NWS values.
T = Trace of Precipitation, MM = Missing Value Source: NWS Daily Summary

Daily Weather History Graph

Daily Weather History Graph

Search for Another Location

Airport or City:

Trip Planner

Search our weather history database for the weather conditions in past years. The results will help you decide how hot, cold, wet, or windy it might be!

Date:

Astronomy

Mar. 13, 2014 Rise Set
Actual Time 7:58 AM EDT 7:47 PM EDT
Civil Twilight 7:30 AM EDT 8:15 PM EDT
Nautical Twilight 6:58 AM EDT 8:47 PM EDT
Astronomical Twilight 6:26 AM EDT 9:19 PM EDT
Moon 5:11 PM EDT (3/13) 6:06 AM EDT (3/13)
Length of Visible Light 12h 44m
Length of Day
11h 49m
Waxing Gibbous, 91% of the Moon is Illuminated
Mar 13
Waxing Gibbous
Mar 16
Full
Mar 23
Last Quarter
Mar 30
New
Apr 7
First Quarter

Hourly Weather History & Observations

Time (EDT) Temp. Windchill Dew Point Humidity Pressure Visibility Wind Dir Wind Speed Gust Speed Precip Events Conditions
12:53 AM 14.0 °F - 8.1 °F 77% 30.08 in 10.0 mi North - - N/A   Clear
1:53 AM 12.9 °F - 6.1 °F 74% 30.09 in 10.0 mi North - - N/A   Clear
2:53 AM 10.9 °F - 3.9 °F 73% 30.10 in 10.0 mi North - - N/A   Clear
3:53 AM 10.0 °F - 3.0 °F 73% 30.11 in 10.0 mi North - - N/A   Clear
4:53 AM 8.1 °F - 1.9 °F 76% 30.11 in 10.0 mi North - - N/A   Clear
5:53 AM 6.1 °F - 1.9 °F 83% 30.12 in 10.0 mi North - - N/A   Clear
6:53 AM 3.0 °F - -2.0 °F 80% 30.16 in 10.0 mi North - - N/A   Clear
7:53 AM 3.9 °F - -0.0 °F 84% 30.18 in 10.0 mi North - - N/A   Clear
8:53 AM 3.9 °F - 1.0 °F 88% 30.19 in 6.0 mi North - - N/A   Clear
9:53 AM 9.0 °F - 5.0 °F 84% 30.20 in 9.0 mi North - - N/A   Clear
10:53 AM 12.9 °F - 5.0 °F 71% 30.20 in 10.0 mi North - - N/A   Clear
11:53 AM 17.1 °F - 5.0 °F 59% 30.21 in 10.0 mi North - - N/A   Clear
12:53 PM 19.9 °F - 8.1 °F 60% 30.20 in 10.0 mi North - - N/A   Clear
1:53 PM 23.0 °F - 12.9 °F 65% 30.17 in 10.0 mi North - - N/A   Unknown
2:53 PM 25.0 °F 13.6 °F 14.0 °F 63% 30.14 in 10.0 mi SSW 12.7 mph - N/A   Overcast
3:53 PM 26.1 °F 14.5 °F 15.1 °F 63% 30.11 in 10.0 mi SSW 13.8 mph 21.9 mph N/A   Overcast
4:53 PM 27.0 °F 15.2 °F 16.0 °F 63% 30.09 in 10.0 mi SSW 15.0 mph - N/A   Overcast
5:53 PM 28.0 °F 16.1 °F 17.1 °F 63% 30.05 in 10.0 mi SSW 16.1 mph - N/A   Overcast
6:53 PM 28.9 °F 19.8 °F 19.0 °F 67% 30.04 in 10.0 mi South 10.4 mph - N/A   Overcast
7:53 PM 30.0 °F 21.1 °F 21.0 °F 69% 30.02 in 10.0 mi South 10.4 mph - N/A   Partly Cloudy
8:53 PM 30.0 °F 20.0 °F 21.0 °F 69% 30.01 in 10.0 mi SSW 12.7 mph - N/A   Clear
9:53 PM 30.0 °F 21.1 °F 21.0 °F 69% 30.00 in 10.0 mi South 10.4 mph - N/A   Clear
10:53 PM 30.9 °F 20.7 °F 21.9 °F 69% 29.98 in 10.0 mi SSW 13.8 mph - N/A   Clear
11:53 PM 33.1 °F 23.4 °F 24.1 °F 70% 29.96 in 10.0 mi SSW 13.8 mph - N/A   Clear